CFG7CE EDDL-LPMA

Flight info

Callsign CFG7CE
Flight time 3h 43m
Altitude 31000
Route MODRU2K MODRU Z717 MAS UM617 CIV N872 MEDIL DCT KOVIN DCT NIDUV DCT KIHVI UN872 ERIGA UN741 AZFIC DCT GATMO DCT LOTEE DCT AGADO/N0435F330 DCT UBANI DCT TUNAV DCT TELMU DCT PECKY DCT LIDRO
Aircraft A21N/M-SDE2E3FGHIRWXY/LB1

Departure

Time 2026-05-07 06:55
Airport Düsseldorf Airport (EDDL)

Arrival

Time 2026-05-07 10:38
Airport Cristiano Ronaldo International Airport (LPMA)
Time Latitude Longitude Altitude Speed Heading
2026-05-07 06:15 51.27992 6.76156 134 ft 0 kts 104°
2026-05-07 06:44 51.27993 6.76150 133 ft 3 kts 107°
2026-05-07 06:45 51.28006 6.76129 133 ft 4 kts 150°
2026-05-07 06:45 51.28018 6.76104 133 ft 4 kts 108°
2026-05-07 06:45 51.28018 6.76069 134 ft 4 kts 52°
2026-05-07 06:45 51.27998 6.76049 133 ft 4 kts
2026-05-07 06:46 51.27972 6.76047 134 ft 4 kts 359°
2026-05-07 06:46 51.27964 6.76048 133 ft 0 kts 359°
2026-05-07 06:49 51.27965 6.76048 133 ft 0 kts 359°
2026-05-07 06:50 51.27977 6.76047 134 ft 3 kts 359°
2026-05-07 06:50 51.28008 6.76046 133 ft 6 kts 359°
2026-05-07 06:50 51.28058 6.76044 133 ft 8 kts 359°
2026-05-07 06:50 51.28106 6.75996 135 ft 10 kts 271°
2026-05-07 06:51 51.28071 6.75900 135 ft 11 kts 232°
2026-05-07 06:51 51.28024 6.75803 135 ft 11 kts 232°
2026-05-07 06:51 51.27975 6.75700 135 ft 12 kts 232°
2026-05-07 06:51 51.27923 6.75593 134 ft 12 kts 232°
2026-05-07 06:52 51.27869 6.75480 133 ft 13 kts 232°
2026-05-07 06:52 51.27846 6.75356 128 ft 13 kts 307°
2026-05-07 06:52 51.27879 6.75318 130 ft 0 kts 334°
2026-05-07 06:53 51.27880 6.75318 125 ft 0 kts 334°
2026-05-07 06:53 51.27893 6.75307 127 ft 4 kts 334°
2026-05-07 06:53 51.27929 6.75279 125 ft 8 kts 334°
2026-05-07 06:54 51.27990 6.75272 125 ft 11 kts 36°
2026-05-07 06:54 51.28054 6.75393 131 ft 25 kts 52°
2026-05-07 06:54 51.28290 6.75886 134 ft 87 kts 53°
2026-05-07 06:54 51.28783 6.76921 134 ft 146 kts 52°
2026-05-07 06:55 51.29473 6.78372 370 ft 174 kts 53°
2026-05-07 06:55 51.30210 6.79978 990 ft 183 kts 53°
2026-05-07 06:55 51.30982 6.81653 1699 ft 189 kts 53°
2026-05-07 06:55 51.31764 6.83351 2254 ft 191 kts 53°
2026-05-07 06:56 51.32564 6.85095 2740 ft 198 kts 53°
2026-05-07 06:56 51.33394 6.86898 3115 ft 213 kts 53°
2026-05-07 06:56 51.34318 6.88911 3424 ft 232 kts 52°
2026-05-07 06:56 51.35525 6.90721 3853 ft 245 kts 28°
2026-05-07 06:57 51.37194 6.91465 4328 ft 256 kts 359°
2026-05-07 06:57 51.38881 6.90686 4921 ft 262 kts 329°
2026-05-07 06:57 51.40211 6.88625 5471 ft 271 kts 304°
2026-05-07 06:57 51.40950 6.85841 6179 ft 274 kts 280°
2026-05-07 06:58 51.40747 6.82845 6899 ft 276 kts 246°
2026-05-07 06:58 51.39623 6.80399 7549 ft 278 kts 230°
2026-05-07 06:58 51.38393 6.77992 8198 ft 280 kts 233°
2026-05-07 06:58 51.37211 6.75463 8765 ft 286 kts 235°
2026-05-07 06:59 51.36045 6.72854 9364 ft 289 kts 235°
2026-05-07 06:59 51.34858 6.70224 10001 ft 291 kts 234°
2026-05-07 06:59 51.33649 6.67623 10394 ft 302 kts 234°
2026-05-07 06:59 51.32344 6.64869 10655 ft 318 kts 233°
2026-05-07 07:00 51.30966 6.61989 10948 ft 331 kts 233°
2026-05-07 07:00 51.29549 6.59052 11493 ft 336 kts 233°
2026-05-07 07:00 51.28109 6.56089 12092 ft 338 kts 233°
2026-05-07 07:00 51.26653 6.53102 12702 ft 340 kts 233°
2026-05-07 07:01 51.25199 6.50110 13285 ft 343 kts 233°
2026-05-07 07:01 51.23737 6.47113 13855 ft 345 kts 233°
2026-05-07 07:01 51.22258 6.44077 14425 ft 348 kts 233°
2026-05-07 07:01 51.20761 6.41018 14984 ft 351 kts 232°
2026-05-07 07:02 51.19252 6.37933 15525 ft 353 kts 232°
2026-05-07 07:02 51.17734 6.34827 16063 ft 356 kts 232°
2026-05-07 07:02 51.16225 6.31743 16584 ft 358 kts 232°
2026-05-07 07:02 51.14682 6.28599 17102 ft 361 kts 232°
2026-05-07 07:03 51.13124 6.25438 17598 ft 364 kts 232°
2026-05-07 07:03 51.11550 6.22247 18088 ft 366 kts 232°
2026-05-07 07:03 51.09975 6.19054 18573 ft 369 kts 232°
2026-05-07 07:03 51.08387 6.15829 19039 ft 371 kts 232°
2026-05-07 07:04 51.06790 6.12586 19497 ft 373 kts 232°
2026-05-07 07:04 51.05176 6.09326 19941 ft 376 kts 232°
2026-05-07 07:04 51.03577 6.06087 20368 ft 378 kts 232°
2026-05-07 07:04 51.01944 6.02785 20788 ft 381 kts 232°
2026-05-07 07:05 51.00296 5.99474 21223 ft 383 kts 232°
2026-05-07 07:05 50.98641 5.96147 21644 ft 384 kts 232°
2026-05-07 07:05 50.96974 5.92791 22049 ft 386 kts 232°
2026-05-07 07:05 50.95323 5.89475 22434 ft 389 kts 232°
2026-05-07 07:06 50.93639 5.86098 22816 ft 391 kts 232°
2026-05-07 07:06 50.91944 5.82712 23193 ft 393 kts 232°
2026-05-07 07:06 50.90245 5.79318 23557 ft 395 kts 232°
2026-05-07 07:06 50.88526 5.75881 23920 ft 397 kts 232°
2026-05-07 07:07 50.86800 5.72452 24279 ft 399 kts 232°
2026-05-07 07:07 50.85079 5.69037 24618 ft 401 kts 232°
2026-05-07 07:07 50.83336 5.65574 24942 ft 403 kts 232°
2026-05-07 07:07 50.81578 5.62085 25257 ft 405 kts 232°
2026-05-07 07:08 50.79815 5.58585 25565 ft 407 kts 232°
2026-05-07 07:08 50.78067 5.55117 25865 ft 409 kts 232°
2026-05-07 07:08 50.76281 5.51583 26163 ft 411 kts 232°
2026-05-07 07:08 50.74489 5.48048 26452 ft 413 kts 232°
2026-05-07 07:09 50.72691 5.44497 26731 ft 414 kts 232°
2026-05-07 07:09 50.70904 5.40968 27012 ft 416 kts 232°
2026-05-07 07:09 50.69086 5.37392 27287 ft 418 kts 231°
2026-05-07 07:09 50.67256 5.33808 27551 ft 420 kts 231°
2026-05-07 07:10 50.65417 5.30211 27811 ft 421 kts 231°
2026-05-07 07:10 50.63579 5.26608 28064 ft 423 kts 231°
2026-05-07 07:10 50.61723 5.22967 28313 ft 425 kts 231°
2026-05-07 07:10 50.59862 5.19331 28551 ft 427 kts 231°
2026-05-07 07:11 50.58018 5.15732 28767 ft 428 kts 231°
2026-05-07 07:11 50.56141 5.12079 29007 ft 430 kts 231°
2026-05-07 07:11 50.54256 5.08407 29227 ft 431 kts 231°
2026-05-07 07:11 50.52365 5.04728 29436 ft 433 kts 231°
2026-05-07 07:12 50.50461 5.01046 29645 ft 435 kts 231°
2026-05-07 07:12 50.48545 4.97342 29848 ft 436 kts 231°
2026-05-07 07:12 50.46647 4.93675 30045 ft 437 kts 231°
2026-05-07 07:12 50.44716 4.89947 30236 ft 439 kts 231°
2026-05-07 07:13 50.42793 4.86232 30450 ft 440 kts 231°
2026-05-07 07:13 50.40863 4.82504 30691 ft 440 kts 231°
2026-05-07 07:13 50.38933 4.78778 30935 ft 440 kts 231°
2026-05-07 07:13 50.36997 4.75060 31089 ft 440 kts 231°
2026-05-07 07:14 50.33151 4.67691 31062 ft 439 kts 231°
2026-05-07 07:14 50.29265 4.60275 31053 ft 440 kts 231°
2026-05-07 07:15 50.25382 4.52867 31052 ft 440 kts 231°
2026-05-07 07:15 50.21512 4.45513 31050 ft 440 kts 231°
2026-05-07 07:16 50.17604 4.38099 31049 ft 440 kts 231°
2026-05-07 07:16 50.13716 4.30757 31050 ft 441 kts 231°
2026-05-07 07:17 50.09795 4.23380 31050 ft 441 kts 231°
2026-05-07 07:17 50.05893 4.16062 31050 ft 441 kts 231°
2026-05-07 07:18 50.01967 4.08712 31052 ft 441 kts 231°
2026-05-07 07:18 49.98038 4.01344 31051 ft 441 kts 230°
2026-05-07 07:19 49.94129 3.94064 31049 ft 441 kts 230°
2026-05-07 07:19 49.90184 3.86732 31052 ft 441 kts 230°
2026-05-07 07:20 49.86236 3.79421 31050 ft 441 kts 230°
2026-05-07 07:20 49.82317 3.72190 31049 ft 441 kts 230°
2026-05-07 07:21 49.78365 3.64909 31050 ft 441 kts 230°
2026-05-07 07:21 49.74409 3.57632 31048 ft 441 kts 230°
2026-05-07 07:22 49.70453 3.50385 31047 ft 440 kts 230°
2026-05-07 07:22 49.66509 3.43180 31051 ft 440 kts 230°
2026-05-07 07:23 49.62537 3.35952 31049 ft 440 kts 230°
2026-05-07 07:23 49.58597 3.28785 31050 ft 440 kts 230°
2026-05-07 07:24 49.54634 3.21594 31051 ft 439 kts 230°
2026-05-07 07:24 49.50685 3.14460 31049 ft 439 kts 230°
2026-05-07 07:25 49.45587 3.02807 31049 ft 437 kts 241°
2026-05-07 07:26 49.43133 2.96022 31050 ft 437 kts 241°
2026-05-07 07:26 49.40127 2.87883 31051 ft 437 kts 240°
2026-05-07 07:27 49.37115 2.79803 31050 ft 437 kts 240°
2026-05-07 07:27 49.34104 2.71690 31051 ft 437 kts 242°
2026-05-07 07:28 49.31235 2.63526 31051 ft 436 kts 242°
2026-05-07 07:28 49.28351 2.55327 31049 ft 436 kts 242°
2026-05-07 07:29 49.25471 2.47195 31048 ft 436 kts 242°
2026-05-07 07:29 49.22564 2.39032 31048 ft 436 kts 242°
2026-05-07 07:30 49.19665 2.30866 31050 ft 437 kts 242°
2026-05-07 07:30 49.16712 2.22768 31051 ft 436 kts 241°
2026-05-07 07:31 49.13731 2.14734 31051 ft 436 kts 241°
2026-05-07 07:31 49.10730 2.06660 31049 ft 436 kts 241°
2026-05-07 07:32 49.08019 1.98404 31051 ft 436 kts 246°
2026-05-07 07:32 49.05506 1.90016 31048 ft 435 kts 246°
2026-05-07 07:33 49.02999 1.81671 31049 ft 434 kts 246°
2026-05-07 07:33 49.00469 1.73288 31050 ft 434 kts 246°
2026-05-07 07:34 48.97931 1.64945 31050 ft 434 kts 245°
2026-05-07 07:34 48.95404 1.56637 31049 ft 434 kts 245°
2026-05-07 07:35 48.92850 1.48263 31050 ft 434 kts 245°
2026-05-07 07:35 48.90296 1.39946 31050 ft 435 kts 245°
2026-05-07 07:36 48.87748 1.31668 31050 ft 435 kts 245°
2026-05-07 07:36 48.85177 1.23341 31051 ft 435 kts 245°
2026-05-07 07:37 48.82596 1.15016 31051 ft 435 kts 245°
2026-05-07 07:37 48.80034 1.06759 31052 ft 435 kts 245°
2026-05-07 07:38 48.77434 0.98439 31049 ft 435 kts 245°
2026-05-07 07:38 48.74834 0.90140 31060 ft 435 kts 244°
2026-05-07 07:39 48.71770 0.82216 31057 ft 435 kts 239°
2026-05-07 07:39 48.68615 0.74455 31057 ft 435 kts 239°
2026-05-07 07:40 48.65439 0.66646 31078 ft 434 kts 239°
2026-05-07 07:40 48.62277 0.58875 31077 ft 435 kts 239°
2026-05-07 07:41 48.59099 0.51090 31077 ft 435 kts 239°
2026-05-07 07:41 48.55912 0.43316 31077 ft 435 kts 239°
2026-05-07 07:42 48.52742 0.35587 31076 ft 435 kts 239°
2026-05-07 07:42 48.49544 0.27823 31079 ft 435 kts 238°
2026-05-07 07:43 48.46361 0.20119 31082 ft 435 kts 238°
2026-05-07 07:43 48.43149 0.12369 31078 ft 436 kts 238°
2026-05-07 07:44 48.39923 0.04611 31084 ft 436 kts 238°
2026-05-07 07:44 48.36708 -0.03093 31073 ft 436 kts 238°
2026-05-07 07:45 48.33178 -0.10473 31077 ft 433 kts 234°
2026-05-07 07:45 48.29591 -0.17693 31074 ft 433 kts 233°
2026-05-07 07:46 48.25989 -0.24943 31067 ft 434 kts 233°
2026-05-07 07:46 48.22329 -0.32165 31079 ft 433 kts 233°
2026-05-07 07:47 48.18659 -0.39331 31056 ft 433 kts 233°
2026-05-07 07:47 48.15001 -0.46453 31067 ft 433 kts 233°
2026-05-07 07:48 48.11327 -0.53611 31056 ft 433 kts 233°
2026-05-07 07:48 48.07653 -0.60758 31051 ft 433 kts 233°
2026-05-07 07:49 48.03987 -0.67867 31050 ft 433 kts 233°
2026-05-07 07:49 48.00291 -0.75003 31050 ft 433 kts 232°
2026-05-07 07:50 47.96625 -0.82072 31051 ft 433 kts 232°
2026-05-07 07:50 47.92926 -0.89176 31050 ft 433 kts 232°
2026-05-07 07:51 47.89226 -0.96264 31049 ft 433 kts 232°
2026-05-07 07:51 47.85519 -1.03360 31051 ft 433 kts 232°
2026-05-07 07:52 47.81825 -1.10410 31051 ft 433 kts 232°
2026-05-07 07:52 47.78084 -1.17499 31051 ft 433 kts 232°
2026-05-07 07:53 47.74368 -1.24494 31050 ft 433 kts 232°
2026-05-07 07:53 47.70649 -1.31576 31048 ft 433 kts 232°
2026-05-07 07:54 47.66948 -1.38595 31043 ft 433 kts 232°
2026-05-07 07:54 47.63217 -1.45635 31041 ft 433 kts 232°
2026-05-07 07:55 47.59460 -1.52574 31040 ft 433 kts 229°
2026-05-07 07:55 47.55439 -1.59225 31040 ft 432 kts 229°
2026-05-07 07:56 47.51404 -1.65858 31035 ft 433 kts 228°
2026-05-07 07:56 47.47394 -1.72443 31030 ft 433 kts 228°
2026-05-07 07:57 47.43349 -1.79072 31030 ft 433 kts 228°
2026-05-07 07:57 47.39312 -1.85664 31030 ft 434 kts 228°
2026-05-07 07:58 47.35195 -1.92175 31024 ft 433 kts 225°
2026-05-07 07:58 47.30825 -1.98313 31020 ft 433 kts 224°
2026-05-07 07:59 47.26448 -2.04446 31020 ft 433 kts 224°
2026-05-07 07:59 47.22110 -2.10539 31020 ft 433 kts 224°
2026-05-07 08:00 47.17742 -2.16644 31020 ft 433 kts 224°
2026-05-07 08:00 47.13396 -2.22713 31020 ft 433 kts 224°
2026-05-07 08:01 47.09036 -2.28795 31020 ft 433 kts 224°
2026-05-07 08:01 47.04655 -2.34863 31020 ft 433 kts 224°
2026-05-07 08:02 47.00287 -2.40888 31020 ft 432 kts 224°
2026-05-07 08:02 46.95920 -2.46941 31020 ft 432 kts 224°
2026-05-07 08:03 46.91559 -2.53005 31021 ft 432 kts 224°
2026-05-07 08:03 46.87175 -2.59043 31020 ft 432 kts 224°
2026-05-07 08:04 46.82807 -2.65023 31020 ft 432 kts 223°
2026-05-07 08:04 46.78413 -2.71034 31021 ft 432 kts 223°
2026-05-07 08:05 46.74060 -2.77008 31020 ft 432 kts 224°
2026-05-07 08:05 46.69677 -2.83010 31020 ft 432 kts 223°
2026-05-07 08:06 46.65277 -2.88982 31021 ft 432 kts 223°
2026-05-07 08:06 46.60877 -2.94949 31021 ft 432 kts 223°
2026-05-07 08:07 46.56490 -3.00867 31020 ft 432 kts 223°
2026-05-07 08:07 46.52073 -3.06817 31020 ft 432 kts 223°
2026-05-07 08:08 46.47694 -3.12740 31021 ft 432 kts 223°
2026-05-07 08:08 46.43293 -3.18698 31020 ft 432 kts 223°
2026-05-07 08:09 46.38878 -3.24645 31020 ft 432 kts 223°
2026-05-07 08:09 46.34463 -3.30562 31020 ft 432 kts 223°
2026-05-07 08:10 46.30062 -3.36434 31020 ft 432 kts 223°
2026-05-07 08:10 46.25637 -3.42329 31020 ft 432 kts 223°
2026-05-07 08:11 46.21212 -3.48216 31020 ft 432 kts 223°
2026-05-07 08:11 46.16779 -3.54090 31021 ft 432 kts 223°
2026-05-07 08:12 46.12368 -3.59926 31020 ft 432 kts 223°
2026-05-07 08:12 46.07956 -3.65756 31013 ft 432 kts 223°
2026-05-07 08:13 46.03556 -3.71664 31008 ft 432 kts 226°
2026-05-07 08:13 45.99511 -3.78063 31010 ft 430 kts 228°
2026-05-07 08:14 45.95525 -3.84448 31011 ft 431 kts 228°
2026-05-07 08:14 45.91509 -3.90849 30997 ft 431 kts 228°
2026-05-07 08:15 45.87483 -3.97230 30998 ft 431 kts 228°
2026-05-07 08:15 45.84130 -4.02538 31001 ft 431 kts 228°
2026-05-07 08:16 45.80111 -4.08918 30998 ft 431 kts 228°
2026-05-07 08:16 45.76111 -4.15243 30990 ft 431 kts 228°
2026-05-07 08:17 45.72071 -4.21604 30990 ft 431 kts 227°
2026-05-07 08:17 45.68026 -4.27958 30991 ft 431 kts 227°
2026-05-07 08:18 45.64012 -4.34252 30990 ft 431 kts 227°
2026-05-07 08:18 45.59959 -4.40586 30989 ft 431 kts 227°
2026-05-07 08:19 45.55906 -4.46899 30981 ft 431 kts 227°
2026-05-07 08:19 45.51878 -4.53177 30980 ft 430 kts 227°
2026-05-07 08:20 45.47826 -4.59474 30973 ft 430 kts 227°
2026-05-07 08:20 45.43784 -4.65739 30970 ft 430 kts 227°
2026-05-07 08:21 45.39734 -4.71990 30971 ft 430 kts 227°
2026-05-07 08:21 45.35669 -4.78255 30971 ft 430 kts 227°
2026-05-07 08:22 45.31612 -4.84492 30971 ft 430 kts 227°
2026-05-07 08:22 45.27539 -4.90746 30970 ft 430 kts 227°
2026-05-07 08:23 45.23469 -4.96981 30971 ft 430 kts 227°
2026-05-07 08:23 45.19421 -5.03164 30971 ft 430 kts 227°
2026-05-07 08:24 45.15342 -5.09382 30966 ft 430 kts 227°
2026-05-07 08:24 45.11286 -5.15554 30960 ft 430 kts 227°
2026-05-07 08:25 45.07204 -5.21745 30960 ft 430 kts 226°
2026-05-07 08:25 45.03120 -5.27934 30961 ft 430 kts 226°
2026-05-07 08:26 44.96996 -5.37173 30961 ft 430 kts 226°
2026-05-07 08:26 44.92911 -5.43326 30960 ft 430 kts 226°
2026-05-07 08:27 44.88804 -5.49505 30960 ft 430 kts 226°
2026-05-07 08:27 44.84722 -5.55623 30960 ft 431 kts 226°
2026-05-07 08:28 44.80602 -5.61782 30959 ft 431 kts 226°
2026-05-07 08:28 44.76479 -5.67936 30951 ft 431 kts 226°
2026-05-07 08:29 44.72387 -5.74031 30951 ft 431 kts 226°
2026-05-07 08:29 44.68256 -5.80170 30951 ft 431 kts 226°
2026-05-07 08:30 44.63938 -5.86012 30937 ft 431 kts 220°
2026-05-07 08:30 44.59371 -5.91371 30943 ft 429 kts 219°
2026-05-07 08:31 44.54776 -5.96749 30936 ft 429 kts 219°
2026-05-07 08:31 44.50218 -6.02097 30935 ft 429 kts 219°
2026-05-07 08:32 44.45626 -6.07464 30942 ft 429 kts 219°
2026-05-07 08:32 44.41066 -6.12791 30939 ft 429 kts 219°
2026-05-07 08:33 44.36470 -6.18144 30935 ft 429 kts 219°
2026-05-07 08:33 44.31884 -6.23471 30941 ft 429 kts 219°
2026-05-07 08:34 44.27320 -6.28763 30938 ft 429 kts 219°
2026-05-07 08:34 44.22722 -6.34082 30938 ft 429 kts 219°
2026-05-07 08:35 44.18119 -6.39408 30937 ft 429 kts 219°
2026-05-07 08:35 44.13545 -6.44679 30936 ft 428 kts 219°
2026-05-07 08:36 44.08947 -6.49961 30937 ft 428 kts 219°
2026-05-07 08:36 44.04349 -6.55242 30936 ft 428 kts 219°
2026-05-07 08:37 43.99761 -6.60495 30941 ft 428 kts 219°
2026-05-07 08:37 43.95160 -6.65759 30943 ft 428 kts 219°
2026-05-07 08:38 43.90588 -6.70983 30938 ft 428 kts 219°
2026-05-07 08:38 43.85981 -6.76229 30941 ft 428 kts 219°
2026-05-07 08:39 43.81362 -6.81474 30937 ft 428 kts 219°
2026-05-07 08:39 43.76753 -6.86686 30946 ft 428 kts 219°
2026-05-07 08:40 43.72166 -6.91876 30939 ft 428 kts 219°
2026-05-07 08:40 43.67544 -6.97091 30937 ft 428 kts 219°
2026-05-07 08:41 43.62927 -7.02297 30935 ft 428 kts 219°
2026-05-07 08:41 43.58330 -7.07462 30940 ft 428 kts 219°
2026-05-07 08:42 43.53703 -7.12656 30942 ft 428 kts 219°
2026-05-07 08:42 43.49086 -7.17833 30933 ft 427 kts 219°
2026-05-07 08:43 43.44487 -7.22975 30928 ft 427 kts 218°
2026-05-07 08:43 43.39859 -7.28130 30928 ft 428 kts 219°
2026-05-07 08:44 43.35226 -7.33287 30929 ft 428 kts 218°
2026-05-07 08:44 43.30583 -7.38434 30931 ft 428 kts 218°
2026-05-07 08:45 43.25969 -7.43554 30930 ft 428 kts 218°
2026-05-07 08:45 43.21320 -7.48698 30931 ft 428 kts 218°
2026-05-07 08:46 43.16701 -7.53802 30927 ft 428 kts 218°
2026-05-07 08:46 43.12051 -7.58920 30923 ft 428 kts 218°
2026-05-07 08:47 43.07403 -7.64031 30920 ft 428 kts 218°
2026-05-07 08:47 43.02780 -7.69110 30920 ft 428 kts 218°
2026-05-07 08:48 42.98117 -7.74215 30921 ft 429 kts 218°
2026-05-07 08:48 42.93479 -7.79278 30919 ft 428 kts 218°
2026-05-07 08:49 42.88825 -7.84354 30919 ft 429 kts 218°
2026-05-07 08:49 42.84174 -7.89422 30912 ft 428 kts 218°
2026-05-07 08:50 42.79507 -7.94492 30910 ft 428 kts 218°
2026-05-07 08:50 42.74839 -7.99554 30910 ft 429 kts 218°
2026-05-07 08:51 42.70167 -8.04613 30909 ft 430 kts 218°
2026-05-07 08:51 42.65505 -8.09653 30911 ft 431 kts 218°
2026-05-07 08:52 42.60805 -8.14718 30909 ft 431 kts 218°
2026-05-07 08:52 42.56100 -8.19769 30910 ft 431 kts 218°
2026-05-07 08:53 42.51408 -8.24807 30909 ft 431 kts 218°
2026-05-07 08:53 42.46726 -8.29826 30910 ft 431 kts 218°
2026-05-07 08:54 42.42020 -8.34861 30912 ft 431 kts 218°
2026-05-07 08:54 42.37310 -8.39890 30911 ft 431 kts 218°
2026-05-07 08:55 42.32625 -8.44886 30909 ft 431 kts 218°
2026-05-07 08:55 42.27907 -8.49900 30910 ft 431 kts 218°
2026-05-07 08:56 42.23183 -8.54914 30911 ft 431 kts 218°
2026-05-07 08:56 42.18488 -8.59886 30911 ft 431 kts 218°
2026-05-07 08:57 42.13745 -8.64900 30911 ft 432 kts 218°
2026-05-07 08:57 42.09039 -8.69862 30911 ft 432 kts 218°
2026-05-07 08:58 42.04293 -8.74852 30911 ft 433 kts 218°
2026-05-07 08:58 41.99553 -8.79837 30911 ft 433 kts 218°
2026-05-07 08:59 41.94790 -8.84837 30908 ft 434 kts 219°
2026-05-07 08:59 41.90016 -8.89834 30912 ft 435 kts 219°
2026-05-07 09:00 41.85227 -8.94746 30911 ft 435 kts 218°
2026-05-07 09:00 41.80363 -8.99592 30909 ft 436 kts 218°
2026-05-07 09:01 41.75482 -9.04457 30909 ft 437 kts 218°
2026-05-07 09:01 41.70607 -9.09299 30911 ft 437 kts 218°
2026-05-07 09:02 41.65704 -9.14150 30911 ft 438 kts 218°
2026-05-07 09:02 41.60791 -9.19010 30909 ft 438 kts 218°
2026-05-07 09:03 41.55884 -9.23866 30909 ft 439 kts 218°
2026-05-07 09:03 41.51829 -9.27898 30910 ft 439 kts 218°
2026-05-07 09:04 41.46914 -9.32783 30912 ft 439 kts 218°
2026-05-07 09:04 41.42028 -9.37607 30910 ft 440 kts 218°
2026-05-07 09:05 41.37095 -9.42462 30911 ft 439 kts 218°
2026-05-07 09:05 41.32197 -9.47276 30910 ft 439 kts 218°
2026-05-07 09:06 41.27274 -9.52114 30910 ft 439 kts 218°
2026-05-07 09:06 41.22345 -9.56945 30911 ft 440 kts 218°
2026-05-07 09:07 41.17430 -9.61758 30912 ft 440 kts 218°
2026-05-07 09:07 41.12497 -9.66586 30911 ft 440 kts 218°
2026-05-07 09:08 41.07546 -9.71411 30911 ft 440 kts 218°
2026-05-07 09:08 41.02635 -9.76194 30910 ft 441 kts 218°
2026-05-07 09:09 40.97681 -9.81000 30910 ft 441 kts 218°
2026-05-07 09:09 40.92757 -9.85776 30909 ft 440 kts 218°
2026-05-07 09:10 40.87806 -9.90569 30911 ft 440 kts 219°
2026-05-07 09:10 40.82890 -9.95320 30912 ft 439 kts 220°
2026-05-07 09:11 40.77947 -10.00088 30911 ft 439 kts 219°
2026-05-07 09:11 40.73042 -10.04800 30913 ft 438 kts 220°
2026-05-07 09:12 40.68110 -10.09547 30911 ft 438 kts 220°
2026-05-07 09:12 40.63186 -10.14280 30911 ft 437 kts 220°
2026-05-07 09:13 40.58289 -10.18969 30911 ft 438 kts 220°
2026-05-07 09:13 40.53357 -10.23679 30911 ft 438 kts 220°
2026-05-07 09:14 40.48437 -10.28364 30911 ft 438 kts 220°
2026-05-07 09:14 40.43494 -10.33070 30911 ft 438 kts 220°
2026-05-07 09:15 40.38552 -10.37756 30910 ft 438 kts 220°
2026-05-07 09:15 40.33616 -10.42429 30910 ft 438 kts 220°
2026-05-07 09:16 40.28706 -10.47080 30910 ft 438 kts 220°
2026-05-07 09:16 40.23755 -10.51762 30909 ft 438 kts 220°
2026-05-07 09:17 40.18832 -10.56400 30910 ft 438 kts 220°
2026-05-07 09:17 40.13887 -10.61053 30909 ft 437 kts 220°
2026-05-07 09:18 40.08924 -10.65718 30911 ft 438 kts 220°
2026-05-07 09:18 40.03978 -10.70358 30911 ft 436 kts 220°
2026-05-07 09:19 39.99062 -10.74957 30925 ft 437 kts 220°
2026-05-07 09:19 39.94150 -10.79551 30930 ft 436 kts 220°
2026-05-07 09:20 39.89219 -10.84150 30931 ft 435 kts 220°
2026-05-07 09:20 39.84280 -10.88739 30928 ft 435 kts 219°
2026-05-07 09:21 39.79379 -10.93269 30926 ft 435 kts 220°
2026-05-07 09:21 39.74451 -10.97841 30921 ft 435 kts 219°
2026-05-07 09:22 39.69532 -11.02409 30920 ft 434 kts 219°
2026-05-07 09:22 39.64638 -11.06938 30919 ft 434 kts 219°
2026-05-07 09:23 39.59711 -11.11481 30919 ft 433 kts 219°
2026-05-07 09:23 39.54789 -11.16011 30920 ft 433 kts 219°
2026-05-07 09:24 39.49895 -11.20503 30918 ft 433 kts 219°
2026-05-07 09:24 39.44960 -11.25033 30928 ft 434 kts 219°
2026-05-07 09:25 39.40062 -11.29527 30945 ft 433 kts 219°
2026-05-07 09:25 39.35129 -11.34038 30942 ft 433 kts 219°
2026-05-07 09:26 39.30206 -11.38536 30938 ft 433 kts 219°
2026-05-07 09:26 39.25306 -11.43003 30940 ft 433 kts 219°
2026-05-07 09:27 39.20374 -11.47492 30937 ft 433 kts 219°
2026-05-07 09:28 39.12984 -11.54199 30942 ft 433 kts 219°
2026-05-07 09:28 39.08056 -11.58672 30939 ft 433 kts 219°
2026-05-07 09:29 39.03142 -11.63115 30938 ft 433 kts 219°
2026-05-07 09:29 38.98201 -11.67579 30938 ft 433 kts 219°
2026-05-07 09:30 38.93292 -11.71997 30940 ft 432 kts 219°
2026-05-07 09:30 38.88355 -11.76432 30943 ft 432 kts 218°
2026-05-07 09:31 38.83449 -11.80846 30941 ft 432 kts 219°
2026-05-07 09:31 38.78517 -11.85282 30940 ft 433 kts 219°
2026-05-07 09:32 38.73577 -11.89708 30941 ft 433 kts 218°
2026-05-07 09:32 38.68667 -11.94090 30946 ft 432 kts 218°
2026-05-07 09:33 38.63723 -11.98491 30940 ft 432 kts 218°
2026-05-07 09:33 38.58775 -12.02906 30937 ft 432 kts 218°
2026-05-07 09:34 38.53872 -12.07263 30942 ft 431 kts 218°
2026-05-07 09:34 38.48926 -12.11617 30939 ft 429 kts 218°
2026-05-07 09:35 38.43995 -12.15873 30940 ft 430 kts 218°
2026-05-07 09:35 38.39031 -12.20154 30938 ft 429 kts 218°
2026-05-07 09:36 38.34105 -12.24410 30938 ft 430 kts 218°
2026-05-07 09:36 38.29140 -12.28686 30940 ft 430 kts 218°
2026-05-07 09:37 38.24196 -12.32924 30945 ft 430 kts 217°
2026-05-07 09:37 38.19211 -12.37154 30947 ft 433 kts 217°
2026-05-07 09:38 38.14180 -12.41399 30951 ft 433 kts 217°
2026-05-07 09:38 38.09201 -12.45619 30952 ft 432 kts 217°
2026-05-07 09:39 38.04176 -12.49868 30952 ft 432 kts 217°
2026-05-07 09:39 37.99186 -12.54077 30950 ft 432 kts 217°
2026-05-07 09:40 37.94203 -12.58270 30949 ft 428 kts 217°
2026-05-07 09:40 37.89246 -12.62445 30951 ft 428 kts 217°
2026-05-07 09:41 37.84303 -12.66595 30953 ft 428 kts 217°
2026-05-07 09:41 37.79323 -12.70760 30951 ft 428 kts 217°
2026-05-07 09:42 37.74382 -12.74901 30952 ft 428 kts 217°
2026-05-07 09:42 37.69413 -12.79050 30952 ft 428 kts 217°
2026-05-07 09:43 37.64444 -12.83194 30950 ft 427 kts 217°
2026-05-07 09:43 37.59469 -12.87336 30949 ft 427 kts 216°
2026-05-07 09:44 37.54501 -12.91473 30953 ft 427 kts 216°
2026-05-07 09:44 37.49539 -12.95588 30951 ft 427 kts 216°
2026-05-07 09:45 37.44590 -12.99682 30950 ft 427 kts 216°
2026-05-07 09:45 37.39619 -13.03784 30950 ft 428 kts 216°
2026-05-07 09:46 37.34637 -13.07902 30957 ft 427 kts 216°
2026-05-07 09:46 37.29666 -13.12013 30958 ft 427 kts 216°
2026-05-07 09:47 37.24725 -13.16084 30956 ft 427 kts 216°
2026-05-07 09:47 37.19739 -13.20176 30959 ft 427 kts 216°
2026-05-07 09:48 37.14776 -13.24255 30959 ft 427 kts 216°
2026-05-07 09:48 37.09825 -13.28313 30962 ft 427 kts 216°
2026-05-07 09:49 37.04839 -13.32388 30970 ft 427 kts 216°
2026-05-07 09:49 36.99859 -13.36449 30971 ft 427 kts 216°
2026-05-07 09:50 36.94914 -13.40484 30972 ft 426 kts 216°
2026-05-07 09:50 36.89923 -13.44554 30975 ft 426 kts 216°
2026-05-07 09:51 36.84976 -13.48575 30971 ft 427 kts 216°
2026-05-07 09:51 36.79995 -13.52618 30978 ft 427 kts 216°
2026-05-07 09:52 36.74996 -13.56668 30982 ft 427 kts 216°
2026-05-07 09:52 36.70038 -13.60681 30980 ft 427 kts 216°
2026-05-07 09:53 36.65879 -13.64031 30979 ft 427 kts 215°
2026-05-07 09:53 36.60871 -13.68053 30978 ft 427 kts 216°
2026-05-07 09:54 36.55904 -13.72054 30981 ft 427 kts 216°
2026-05-07 09:54 36.50905 -13.76087 30981 ft 427 kts 216°
2026-05-07 09:55 36.45910 -13.80107 30980 ft 427 kts 215°
2026-05-07 09:55 36.40941 -13.84095 30981 ft 427 kts 215°
2026-05-07 09:56 36.35933 -13.88101 30990 ft 427 kts 215°
2026-05-07 09:56 36.33432 -13.90098 31103 ft 428 kts 215°
2026-05-07 09:56 36.30928 -13.92098 31401 ft 427 kts 215°
2026-05-07 09:56 36.28431 -13.94093 31693 ft 426 kts 215°
2026-05-07 09:57 36.25969 -13.96058 31960 ft 426 kts 215°
2026-05-07 09:57 36.23471 -13.98052 32194 ft 426 kts 215°
2026-05-07 09:57 36.20976 -14.00040 32433 ft 426 kts 215°
2026-05-07 09:57 36.18471 -14.02028 32680 ft 425 kts 215°
2026-05-07 09:58 36.15980 -14.04006 32924 ft 425 kts 215°
2026-05-07 09:58 36.11026 -14.07936 33024 ft 425 kts 215°
2026-05-07 09:59 36.06055 -14.11889 32994 ft 425 kts 215°
2026-05-07 09:59 36.01071 -14.15834 32997 ft 425 kts 215°
2026-05-07 10:00 35.96109 -14.19753 33000 ft 425 kts 215°
2026-05-07 10:00 35.91125 -14.23692 33003 ft 425 kts 215°
2026-05-07 10:01 35.86130 -14.27630 33005 ft 425 kts 215°
2026-05-07 10:01 35.81151 -14.31552 32999 ft 425 kts 215°
2026-05-07 10:02 35.76193 -14.35445 33001 ft 425 kts 215°
2026-05-07 10:02 35.71194 -14.39373 33002 ft 425 kts 215°
2026-05-07 10:03 35.66200 -14.43286 33000 ft 424 kts 215°
2026-05-07 10:03 35.61245 -14.47160 33004 ft 424 kts 215°
2026-05-07 10:04 35.56236 -14.51069 33010 ft 424 kts 215°
2026-05-07 10:04 35.51254 -14.54955 33010 ft 424 kts 215°
2026-05-07 10:05 35.46286 -14.58830 33009 ft 425 kts 215°
2026-05-07 10:05 35.41285 -14.62720 33009 ft 425 kts 215°
2026-05-07 10:06 35.36286 -14.66601 33009 ft 425 kts 215°
2026-05-07 10:06 35.31307 -14.70459 33011 ft 425 kts 215°
2026-05-07 10:07 35.26305 -14.74333 33010 ft 425 kts 215°
2026-05-07 10:07 35.21334 -14.78177 33018 ft 425 kts 215°
2026-05-07 10:08 35.16317 -14.82047 33017 ft 425 kts 215°
2026-05-07 10:08 35.11333 -14.85888 33018 ft 425 kts 215°
2026-05-07 10:09 35.06326 -14.89744 33021 ft 425 kts 215°
2026-05-07 10:09 35.01317 -14.93591 33021 ft 425 kts 215°
2026-05-07 10:10 34.96325 -14.97423 33029 ft 425 kts 215°
2026-05-07 10:10 34.91316 -15.01264 33030 ft 425 kts 215°
2026-05-07 10:11 34.86311 -15.05092 33033 ft 425 kts 215°
2026-05-07 10:11 34.81314 -15.08912 33032 ft 425 kts 215°
2026-05-07 10:12 34.76302 -15.12736 33028 ft 425 kts 214°
2026-05-07 10:12 34.71315 -15.16539 33031 ft 425 kts 214°
2026-05-07 10:13 34.66300 -15.20354 33038 ft 425 kts 214°
2026-05-07 10:13 34.61283 -15.24167 33038 ft 425 kts 214°
2026-05-07 10:14 34.56288 -15.27956 33037 ft 425 kts 214°
2026-05-07 10:14 34.51263 -15.31763 33040 ft 425 kts 214°
2026-05-07 10:15 34.46236 -15.35564 33039 ft 425 kts 214°
2026-05-07 10:15 34.41203 -15.39357 33042 ft 426 kts 214°
2026-05-07 10:16 34.36205 -15.43126 33037 ft 425 kts 214°
2026-05-07 10:16 34.31173 -15.46915 33044 ft 426 kts 214°
2026-05-07 10:17 34.26133 -15.50709 33038 ft 425 kts 214°
2026-05-07 10:17 34.21134 -15.54466 33040 ft 425 kts 214°
2026-05-07 10:18 34.16107 -15.58235 33039 ft 426 kts 214°
2026-05-07 10:18 34.11052 -15.62026 33046 ft 426 kts 214°
2026-05-07 10:19 34.06043 -15.65768 33048 ft 426 kts 214°
2026-05-07 10:19 34.00990 -15.69541 33051 ft 426 kts 214°
2026-05-07 10:20 33.95960 -15.73291 33051 ft 426 kts 214°
2026-05-07 10:20 33.90908 -15.77055 33051 ft 425 kts 214°
2026-05-07 10:21 33.85900 -15.80774 33050 ft 425 kts 214°
2026-05-07 10:21 33.80848 -15.84520 33049 ft 425 kts 214°
2026-05-07 10:22 33.75871 -15.88216 32731 ft 415 kts 214°
2026-05-07 10:22 33.73428 -15.90029 32198 ft 410 kts 214°
2026-05-07 10:22 33.71009 -15.91818 31626 ft 406 kts 214°
2026-05-07 10:22 33.68608 -15.93593 31036 ft 403 kts 214°
2026-05-07 10:23 33.66238 -15.95378 30434 ft 400 kts 216°
2026-05-07 10:23 33.63922 -15.97214 29824 ft 397 kts 216°
2026-05-07 10:23 33.61649 -15.99028 29234 ft 395 kts 216°
2026-05-07 10:23 33.59368 -16.00848 28634 ft 392 kts 216°
2026-05-07 10:24 33.57093 -16.02661 28031 ft 390 kts 216°
2026-05-07 10:24 33.54831 -16.04462 27423 ft 387 kts 216°
2026-05-07 10:24 33.52590 -16.06245 26824 ft 385 kts 216°
2026-05-07 10:24 33.50386 -16.07996 26228 ft 383 kts 216°
2026-05-07 10:25 33.48168 -16.09752 25615 ft 381 kts 216°
2026-05-07 10:25 33.45963 -16.11500 25025 ft 379 kts 216°
2026-05-07 10:25 33.43785 -16.13227 24427 ft 377 kts 216°
2026-05-07 10:25 33.41596 -16.14961 23822 ft 374 kts 216°
2026-05-07 10:26 33.39423 -16.16676 23220 ft 373 kts 215°
2026-05-07 10:26 33.37259 -16.18381 22619 ft 371 kts 215°
2026-05-07 10:26 33.35106 -16.20080 22018 ft 369 kts 215°
2026-05-07 10:26 33.32958 -16.21780 21413 ft 368 kts 215°
2026-05-07 10:27 33.30855 -16.23444 20820 ft 366 kts 215°
2026-05-07 10:27 33.28733 -16.25123 20219 ft 365 kts 215°
2026-05-07 10:27 33.26618 -16.26793 19622 ft 363 kts 215°
2026-05-07 10:27 33.24504 -16.28459 19016 ft 362 kts 215°
2026-05-07 10:28 33.22433 -16.30092 18380 ft 361 kts 215°
2026-05-07 10:28 33.20330 -16.31749 17722 ft 361 kts 214°
2026-05-07 10:28 33.18242 -16.33398 17070 ft 360 kts 215°
2026-05-07 10:28 33.16150 -16.35050 16419 ft 360 kts 214°
2026-05-07 10:29 33.14053 -16.36703 15768 ft 359 kts 214°
2026-05-07 10:29 33.11967 -16.38344 15112 ft 359 kts 214°
2026-05-07 10:29 33.09902 -16.39966 14473 ft 358 kts 214°
2026-05-07 10:30 33.05725 -16.43239 13108 ft 359 kts 214°
2026-05-07 10:30 33.03641 -16.44863 12377 ft 360 kts 214°
2026-05-07 10:30 33.01541 -16.46504 11633 ft 362 kts 214°
2026-05-07 10:30 32.99433 -16.48155 10883 ft 363 kts 214°
2026-05-07 10:31 32.97323 -16.49804 10133 ft 363 kts 214°
2026-05-07 10:31 32.95208 -16.51457 9388 ft 364 kts 214°
2026-05-07 10:31 32.93084 -16.53119 8634 ft 364 kts 214°
2026-05-07 10:31 32.90991 -16.54751 7891 ft 364 kts 214°
2026-05-07 10:32 32.88878 -16.56399 7105 ft 359 kts 214°
2026-05-07 10:32 32.86814 -16.58012 6326 ft 350 kts 214°
2026-05-07 10:32 32.84808 -16.59584 5559 ft 340 kts 214°
2026-05-07 10:32 32.82894 -16.61162 4799 ft 330 kts 216°
2026-05-07 10:33 32.81042 -16.62716 4042 ft 321 kts 216°
2026-05-07 10:33 32.79235 -16.64226 3368 ft 311 kts 215°
2026-05-07 10:33 32.77515 -16.65659 2748 ft 300 kts 215°
2026-05-07 10:33 32.75836 -16.67056 2378 ft 284 kts 215°
2026-05-07 10:34 32.74260 -16.68360 2156 ft 268 kts 215°
2026-05-07 10:34 32.72765 -16.69597 1968 ft 256 kts 215°
2026-05-07 10:34 32.71356 -16.70763 1782 ft 236 kts 215°
2026-05-07 10:34 32.70060 -16.71832 1549 ft 218 kts 215°
2026-05-07 10:35 32.68882 -16.72804 1363 ft 197 kts 215°
2026-05-07 10:35 32.67804 -16.73694 1170 ft 182 kts 216°
2026-05-07 10:35 32.66804 -16.74530 979 ft 167 kts 216°
2026-05-07 10:35 32.65944 -16.75258 812 ft 142 kts 216°
2026-05-07 10:36 32.65161 -16.75955 633 ft 142 kts 222°
2026-05-07 10:36 32.64575 -16.76890 620 ft 142 kts 247°
2026-05-07 10:36 32.64459 -16.78037 613 ft 141 kts 281°
2026-05-07 10:36 32.64936 -16.79029 624 ft 140 kts 317°
2026-05-07 10:37 32.65716 -16.79699 618 ft 139 kts 328°
2026-05-07 10:37 32.66584 -16.80186 566 ft 139 kts 345°
2026-05-07 10:37 32.67530 -16.80123 509 ft 139 kts 25°
2026-05-07 10:37 32.68216 -16.79309 411 ft 144 kts 49°
2026-05-07 10:38 32.68940 -16.78453 240 ft 148 kts 44°
2026-05-07 10:38 32.69615 -16.77648 182 ft 119 kts 44°
2026-05-07 10:38 32.69965 -16.77240 193 ft 8 kts 45°
2026-05-07 10:38 32.69936 -16.77181 193 ft 11 kts 169°
2026-05-07 10:39 32.69858 -16.77181 198 ft 11 kts 194°
2026-05-07 10:39 32.69804 -16.77222 186 ft 9 kts 227°
2026-05-07 10:39 32.69764 -16.77273 182 ft 8 kts 227°
2026-05-07 10:39 32.69731 -16.77313 178 ft 6 kts 225°
2026-05-07 10:40 32.69702 -16.77347 175 ft 6 kts 225°
2026-05-07 10:40 32.69669 -16.77387 174 ft 8 kts 225°
2026-05-07 10:40 32.69624 -16.77441 174 ft 10 kts 225°
2026-05-07 10:40 32.69567 -16.77510 174 ft 13 kts 226°
2026-05-07 10:41 32.69501 -16.77593 174 ft 14 kts 226°
2026-05-07 10:41 32.69456 -16.77649 174 ft 14 kts 226°
2026-05-07 10:41 32.69403 -16.77701 175 ft 6 kts 166°
2026-05-07 10:41 32.69369 -16.77672 175 ft 2 kts 137°
2026-05-07 10:42 32.69361 -16.77664 175 ft 1 kts 138°
2026-05-07 10:42 32.69360 -16.77662 175 ft 0 kts 139°